Location: Newark
(44.3681°N, 100.3364°W)
Time: 10:59:25
(UTC+00:00)

deb Explorer IX - Pass Details

Date: 27 February 2020
Orbit: 547 x 1100 km, 38.8° (Epoch: 06 April)

Event Time Altitude Azimuth Distance (km) Brightness Sun altitude
Rises 13:51:40 0° 207° (SSW) 3,325 ? 4.2°
Reaches altitude 10° 13:55:24 10° 184° (S) 2,264 ? 4.9°
Maximum altitude 13:58:10 14° 152° (SSE) 1,884 ? 5.3°
Drops below altitude 10° 14:00:46 10° 120° (ESE) 2,086 ? 5.8°
Sets 14:03:58 0° 95° (E) 2,900 ? 6.3°
